FW5316 Weather Reports


time (UTC)temp
F
wind
direction
speed
knots
gust
knots
rain 1hr
in
rain 24hr
in
rain mn
in
humidity
%
barometer
mb
20260507105535 58 0.0 0.0 0.00 0.00 0.00 85 1016.6
20260507104515 58 0.0 0.0 0.00 0.00 0.00 85 1016.7
20260507103535 58 0.0 0.0 0.00 0.00 0.00 85 1016.8
20260507102515 58 0.0 0.0 0.00 0.00 0.00 85 1016.8
20260507101516 58 0.0 0.0 0.00 0.00 0.00 85 1016.9
20260507100515 58 0.0 0.0 0.00 0.00 0.00 85 1016.8
20260507095515 58 0.0 0.0 0.00 0.00 0.00 84 1016.9
20260507094515 58 0.0 0.0 0.00 0.00 0.00 84 1017.0
20260507093515 58 0.0 0.0 0.00 0.00 0.00 84 1017.0
20260507092515 58 0.0 0.0 0.00 0.00 0.00 84 1017.1
20260507091515 59 0.0 0.0 0.00 0.00 0.00 84 1017.3
20260507090535 59 0.0 0.0 0.00 0.00 0.00 84 1017.3
20260507085515 59 0.0 0.0 0.00 0.00 0.00 84 1017.4
20260507084535 59 0.0 0.0 0.00 0.00 0.00 83 1017.6
20260507083515 59 0.0 0.0 0.00 0.00 0.00 83 1017.7
20260507082515 59 0.0 0.0 0.00 0.00 0.00 83 1017.8
20260507081515 59 0.0 0.0 0.00 0.00 0.00 83 1017.8
20260507080515 60 0.0 0.0 0.00 0.00 0.00 83 1017.8
20260507075515 60 0.0 0.0 0.00 0.00 0.00 83 1017.9
20260507074516 60 0.0 0.0 0.00 0.00 0.00 82 1017.8
20260507073515 60 0.0 0.0 0.00 0.00 0.00 82 1017.8
20260507072515 60 0.0 0.0 0.00 0.00 0.00 82 1017.7
20260507071515 60 0.0 0.0 0.00 0.00 0.00 82 1017.7
20260507070535 60 0.0 0.0 0.00 0.00 0.00 82 1017.8
20260507065555 60 0.0 0.0 0.00 0.00 0.00 82 1017.9
20260507064535 60 0.0 0.0 0.00 0.00 0.00 82 1018.0
20260507063556 61 0.0 0.0 0.00 0.00 0.00 81 1018.1
20260507062516 61 0.0 0.0 0.00 0.00 0.00 81 1018.1
20260507061515 61 0.0 0.0 0.00 0.00 0.00 81 1018.1
20260507060515 61 0.0 0.0 0.00 0.00 0.00 80 1018.1
20260507055515 61 0.0 0.0 0.00 0.00 0.00 80 1018.1
20260507054516 61 0.0 0.0 0.00 0.00 0.00 80 1018.1
20260507053535 61 0.0 0.0 0.00 0.00 0.00 80 1018.2
20260507052516 62 0.0 0.0 0.00 0.00 0.00 79 1018.2
20260507051536 62 306 0.0 2.6 0.00 0.00 0.00 79 1018.2
20260507050556 62 307 0.0 2.6 0.00 0.00 0.00 79 1018.2
20260507045516 62 307 0.0 1.7 0.00 0.00 0.00 78 1018.1
20260507044516 62 309 0.9 4.3 0.00 0.00 0.00 78 1018.1
20260507043515 63 311 1.7 3.5 0.00 0.00 0.00 77 1018.0
20260507042535 63 317 1.7 4.3 0.00 0.00 0.00 77 1018.0
20260507041515 63 318 0.0 2.6 0.00 0.00 0.00 77 1018.0
20260507040535 63 319 0.0 4.3 0.00 0.00 0.00 76 1018.0
20260507035515 64 296 1.7 7.8 0.00 0.00 0.00 76 1017.9
20260507034516 64 310 3.5 7.0 0.00 0.00 0.00 75 1017.8
20260507033515 64 323 3.5 7.8 0.00 0.00 0.00 74 1017.6
20260507032535 64 319 4.3 8.7 0.00 0.00 0.00 74 1017.5
20260507031515 65 319 3.5 7.0 0.00 0.00 0.00 74 1017.5
20260507030516 65 305 3.5 8.7 0.00 0.00 0.00 73 1017.4
20260507025515 65 308 2.6 7.0 0.00 0.00 0.00 72 1017.3
20260507024515 66 305 5.2 9.6 0.00 0.00 0.00 71 1017.2
20260507023515 66 305 2.6 7.8 0.00 0.00 0.00 69 1017.2
20260507022515 67 321 3.5 7.0 0.00 0.00 0.00 68 1017.1
20260507021515 67 325 3.5 7.8 0.00 0.00 0.00 67 1017.1
20260507020515 68 316 3.5 7.8 0.00 0.00 0.00 66 1017.1
20260507015515 68 313 4.3 9.6 0.00 0.00 0.00 64 1017.0
20260507014515 68 324 5.2 9.6 0.00 0.00 0.00 62 1017.1
20260507013515 69 313 5.2 10.4 0.00 0.00 0.00 62 1017.0
20260507012515 69 318 3.5 10.4 0.00 0.00 0.00 64 1017.0
20260507011515 69 271 2.6 8.7 0.00 0.00 0.00 67 1017.0
20260507010535 70 270 4.3 12.2 0.00 0.00 0.00 66 1017.0
20260507005515 70 258 3.5 9.6 0.00 0.00 0.00 65 1016.9
20260507004515 70 273 4.3 10.4 0.00 0.00 0.00 64 1016.9
20260507003515 70 260 4.3 10.4 0.00 0.00 0.00 64 1016.9
20260507002515 71 281 5.2 10.4 0.00 0.00 0.00 64 1016.9
20260507001535 71 289 6.1 11.3 0.00 0.00 0.00 64 1016.8
20260507000515 71 281 4.3 10.4 0.00 0.00 0.00 63 1016.7
20260506235515 71 274 7.0 12.2 0.00 0.00 0.00 63 1016.7
20260506234515 72 274 4.3 13.0 0.00 0.00 0.00 63 1016.7
20260506233515 72 277 4.3 12.2 0.00 0.00 0.00 63 1016.6
20260506232515 72 297 7.0 11.3 0.00 0.00 0.00 62 1016.7
20260506231535 73 269 6.1 12.2 0.00 0.00 0.00 62 1016.7
20260506230517 73 280 7.0 11.3 0.00 0.00 0.00 60 1016.7
20260506225537 74 296 7.8 13.9 0.00 0.00 0.00 59 1016.7
20260506224517 74 280 7.0 13.0 0.00 0.00 0.00 58 1016.8
20260506223517 75 286 5.2 11.3 0.00 0.00 0.00 58 1016.9
20260506221016 77 287 6.1 13.0 0.00 0.00 0.00 54 1017.0
20260506220016 77 288 5.2 13.9 0.00 0.00 0.00 54 1017.1
20260506215016 77 285 7.0 14.8 0.00 0.00 0.00 53 1017.2
20260506214036 77 270 5.2 11.3 0.00 0.00 0.00 53 1017.2
20260506213016 77 276 5.2 13.0 0.00 0.00 0.00 53 1017.3
20260506212015 78 271 7.8 13.0 0.00 0.00 0.00 52 1017.3
20260506211036 78 301 7.8 12.2 0.00 0.00 0.00 52 1017.4
20260506210016 77 276 5.2 12.2 0.00 0.00 0.00 53 1017.4
20260506205036 78 286 7.8 14.8 0.00 0.00 0.00 51 1017.6
20260506204017 79 288 5.2 12.2 0.00 0.00 0.00 51 1017.6
20260506203036 79 296 5.2 13.0 0.00 0.00 0.00 51 1017.8
20260506202015 79 307 7.8 13.9 0.00 0.00 0.00 51 1017.7
20260506201015 78 276 4.3 13.0 0.00 0.00 0.00 52 1017.7
20260506200035 78 280 7.0 13.9 0.00 0.00 0.00 52 1017.8
20260506195016 78 253 4.3 12.2 0.00 0.00 0.00 51 1017.9
20260506194035 79 266 6.1 13.0 0.00 0.00 0.00 50 1017.9
20260506193136 81 269 4.3 11.3 0.00 0.00 0.00 48 1018.0
20260506192015 80 287 3.5 9.6 0.00 0.00 0.00 48 1018.1
20260506191015 80 289 6.1 13.0 0.00 0.00 0.00 49 1018.2
20260506190016 80 277 4.3 10.4 0.00 0.00 0.00 48 1018.3
20260506185036 80 304 6.1 12.2 0.00 0.00 0.00 49 1018.4
20260506184016 79 293 4.3 9.6 0.00 0.00 0.00 50 1018.4
20260506183035 79 234 2.6 7.0 0.00 0.00 0.00 50 1018.5
20260506182016 79 310 2.6 9.6 0.00 0.00 0.00 50 1018.6
20260506181016 79 296 1.7 12.2 0.00 0.00 0.00 50 1018.7
20260506180015 78 324 3.5 7.0 0.00 0.00 0.00 51 1018.7
20260506175036 78 295 2.6 11.3 0.00 0.00 0.00 50 1018.8
20260506174015 77 294 3.5 7.8 0.00 0.00 0.00 52 1018.9
20260506173036 76 301 3.5 10.4 0.00 0.00 0.00 51 1019.0
20260506172015 76 316 1.7 7.0 0.00 0.00 0.00 52 1019.0
20260506171015 76 257 2.6 7.0 0.00 0.00 0.00 51 1019.0
20260506170035 76 315 1.7 7.8 0.00 0.00 0.00 53 1019.1
20260506165036 74 332 2.6 8.7 0.00 0.00 0.00 55 1019.0
20260506164015 73 319 3.5 8.7 0.00 0.00 0.00 57 1019.0
20260506163015 73 335 3.5 7.8 0.00 0.00 0.00 57 1019.1
20260506162015 71 337 2.6 5.2 0.00 0.00 0.00 61 1019.0
20260506161035 69 216 2.6 5.2 0.00 0.00 0.00 62 1019.1
20260506160035 67 332 1.7 4.3 0.00 0.00 0.00 64 1019.1
20260506155015 66 68 1.7 5.2 0.00 0.00 0.00 65 1019.1
20260506154015 65 66 0.9 6.1 0.00 0.00 0.00 66 1019.0
20260506153015 65 82 1.7 6.1 0.00 0.00 0.00 67 1019.1
20260506152015 64 54 1.7 4.3 0.00 0.00 0.00 68 1019.2
20260506151016 62 83 3.5 7.0 0.00 0.00 0.00 69 1019.2
20260506150016 61 82 1.7 4.3 0.00 0.00 0.00 70 1019.2
20260506145015 60 83 3.5 6.1 0.00 0.01 0.00 72 1019.0
20260506144016 59 79 3.5 4.3 0.00 0.01 0.00 73 1019.1
20260506143015 58 82 0.9 3.5 0.00 0.01 0.00 74 1019.1
20260506142015 58 76 0.9 3.5 0.00 0.01 0.00 74 1019.0
20260506141015 57 81 0.0 3.5 0.00 0.01 0.00 76 1019.0
20260506140015 56 77 0.9 3.5 0.00 0.02 0.00 78 1018.9
20260506135015 55 70 0.9 3.5 0.00 0.02 0.00 79 1018.8
20260506134035 54 73 2.6 4.3 0.00 0.04 0.00 78 1018.6
20260506133035 54 75 1.7 3.5 0.00 0.07 0.00 79 1018.6
20260506132015 54 66 1.7 3.5 0.00 0.07 0.00 78 1018.5
20260506131015 54 29 1.7 3.5 0.00 0.07 0.00 79 1018.4
20260506130015 55 21 1.7 3.5 0.00 0.07 0.00 78 1018.3
20260506125017 55 7 1.7 2.6 0.00 0.07 0.00 78 1018.2
20260506124017 55 357 0.9 2.6 0.00 0.07 0.00 78 1018.2
20260506123017 55 355 0.0 2.6 0.00 0.07 0.00 78 1018.2
20260506122017 55 0.0 0.0 0.00 0.07 0.00 78 1018.1
20260506121017 55 0.0 0.0 0.00 0.07 0.00 78 1018.0
20260506120017 56 0.0 0.0 0.00 0.07 0.00 78 1018.0
20260506115017 56 0.0 0.0 0.00 0.07 0.00 78 1018.0
20260506114017 56 0.0 0.0 0.00 0.08 0.00 77 1018.0
20260506113017 56 0.0 0.0 0.00 0.08 0.00 77 1018.1
20260506112017 56 0.0 0.9 0.00 0.08 0.00 77 1018.0
20260506111018 56 338 0.0 1.7 0.00 0.08 0.00 77 1018.0
20260506110016 56 0.0 0.0 0.00 0.08 0.00 77 1018.0